Starlink 31598

operational
NORAD ID: 59263 Int'l Des: 2024-050 Owner: SPXS Country: US Constellation: starlink
LEOCIRCULAR

关于 Starlink 31598

正在加载描述...

实时位置

正在加载3D地球...

即将过境

高度历史

Altitude vs Time

uPlot chart will show altitude changes over time

两行轨道根数

1 59263U 24050K 25353.87911788 .00000908 00000-0 42792-4 0 9998
2 59263 53.1584 192.0827 0001423 80.9818 279.1343 15.30192080 98326
Epoch: Dec 19, 2025 • Age: 12 hours

当前状态

高度 476.3 km
速度 7.63 km/s
星下点 29.13°N, 125.73°E
发射日期 Mar 19, 2024
运行时间 1.7 years
类型 internet

技术详情

分类 Payload
质量 730.00 kg
干质量 700.00 kg
总质量 730.00 kg
长度 0.30 m
直径 4.10 m
跨度 29.00 m
形状 Box + pan
制造商 SPXS
平台类型 Starlink V2M
阶段状态 In Orbit
所有者/国家 SPXS/US

大型星座

Loading constellations...